Tracking 19224 objects as of 23-Jul-2018
HD Live streaming from Space Station
objects crossing your sky now

EDUSAT

Track EDUSAT now!
10-day predictions
EDUSAT is classified as:


NORAD ID: 37788
Int'l Code: 2011-044A
Perigee: 639.6 km
Apogee: 691.5 km
Inclination: 98.3 °
Period: 97.9 minutes
Semi major axis: 7036 km
RCS: 0.1421 m2 (medium)
Launch date: August 17, 2011
Source: Italy (IT)
Launch site: Orenburg, Russia (OREN)

EduSat is a microsatellite built by the University of Rome.
aabbcc
Your satellite tracking list
Your tracking list is empty




NASA's NSSDC Master Catalog

Two Line Element Set (TLE):
1 37788U 11044A   18203.86796343  .00000082  00000-0  22039-4 0  9993
2 37788  98.2956 333.7287 0036877 258.3624 219.0552 14.70833119371785
Source of the keplerian elements: AFSPC